sat.trackr.live / text

‹ back to catalog

ONEWEB-0381

NORAD 49307 · 2021-090AE

PAYLOAD ACTIVE UNKNOWN

§ Identity

Operator
Country
UK
Launch date
2021-10-14
Launch site
VOSTO
Launch vehicle
Mass (kg)
RCS (m²)

Purposes: comms

External: N2YO · Heavens-Above · Gunter

§ Orbital elements

Epoch: 2026-05-25T03:05:37.131072Z

Period
109.03 min
Inclination
87.9176°
Eccentricity
0.0002184
Mean motion
13.20771660 rev/d
Perigee alt
1,180.1 km
Apogee alt
1,183.4 km
Semi-major
7,559.9 km
B*
-1.5046e-4
RAAN
279.0375°
Arg perigee
97.9897°
Mean anomaly
262.1484°
Rev number
22,678

§ Raw data

ONEWEB-03811 49307U 21090AE  26145.12890198 -.00000048  00000+0 -15046-3 0  99932 49307  87.9176 279.0375 0002184  97.9897 262.1484 13.20771660226785

JSON: /api/v1/satellites/49307 · /tle

For live sub-satellite position, see the globe view (requires WebGL).

§ Visibility from observer

Set your observer location to see the next 7 days of passes ≥ 10°. The values pass through the URL so the page stays shareable.

No JS? Fill the form by hand. The geolocation button needs JavaScript.